Year,Month,Day,Hour,Minute,Value (Times are PST for temperature in C)
2017,03,29,00,00,9.20
2017,03,29,00,01,9.20
2017,03,29,00,02,9.20
2017,03,29,00,03,9.20
2017,03,29,00,04,9.20
2017,03,29,00,05,9.20
2017,03,29,00,06,9.20
2017,03,29,00,07,9.20
2017,03,29,00,08,9.20
2017,03,29,00,09,9.20
2017,03,29,00,10,9.20
2017,03,29,00,11,9.20
2017,03,29,00,12,9.20
2017,03,29,00,13,9.20
2017,03,29,00,14,9.20
2017,03,29,00,15,9.20
2017,03,29,00,16,9.20
2017,03,29,00,17,9.20
2017,03,29,00,18,9.20
2017,03,29,00,19,9.20
2017,03,29,00,20,9.10
2017,03,29,00,21,9.10
2017,03,29,00,22,9.10
2017,03,29,00,23,9.10
2017,03,29,00,24,9.10
2017,03,29,00,25,9.10
2017,03,29,00,26,9.10
2017,03,29,00,27,9.10
2017,03,29,00,28,9.10
2017,03,29,00,29,9.10
2017,03,29,00,30,9.10
2017,03,29,00,31,9.10
2017,03,29,00,32,9.10
2017,03,29,00,33,9.10
2017,03,29,00,34,9.10
2017,03,29,00,35,9.10
2017,03,29,00,36,9.10
2017,03,29,00,37,9.10
2017,03,29,00,38,9.10
2017,03,29,00,39,9.10
2017,03,29,00,40,9.10
2017,03,29,00,41,9.00
2017,03,29,00,42,9.00
2017,03,29,00,43,9.00
2017,03,29,00,44,9.00
2017,03,29,00,45,9.00
2017,03,29,00,46,9.00
2017,03,29,00,47,9.00
2017,03,29,00,48,9.00
2017,03,29,00,49,9.00
2017,03,29,00,50,9.00
2017,03,29,00,51,9.00
2017,03,29,00,52,9.00
2017,03,29,00,53,9.00
2017,03,29,00,54,9.00
2017,03,29,00,55,9.00
2017,03,29,00,56,9.00
2017,03,29,00,57,8.90
2017,03,29,00,58,8.90
2017,03,29,00,59,8.90
2017,03,29,01,00,8.90
2017,03,29,01,01,8.90
2017,03,29,01,02,8.90
2017,03,29,01,03,8.90
2017,03,29,01,04,8.90
2017,03,29,01,05,8.90
2017,03,29,01,06,8.90
2017,03,29,01,07,8.80
2017,03,29,01,08,8.90
2017,03,29,01,09,8.80
2017,03,29,01,10,8.80
2017,03,29,01,11,8.80
2017,03,29,01,12,8.80
2017,03,29,01,13,8.80
2017,03,29,01,14,8.80
2017,03,29,01,15,8.80
2017,03,29,01,16,8.80
2017,03,29,01,17,8.80
2017,03,29,01,18,8.80
2017,03,29,01,19,8.80
2017,03,29,01,20,8.80
2017,03,29,01,21,8.80
2017,03,29,01,22,8.80
2017,03,29,01,23,8.80
2017,03,29,01,24,8.80
2017,03,29,01,25,8.80
2017,03,29,01,26,8.70
2017,03,29,01,27,8.70
2017,03,29,01,28,8.70
2017,03,29,01,29,8.70
2017,03,29,01,30,8.70
2017,03,29,01,31,8.70
2017,03,29,01,32,8.70
2017,03,29,01,33,8.70
2017,03,29,01,34,8.70
2017,03,29,01,35,8.70
2017,03,29,01,36,8.70
2017,03,29,01,37,8.70
2017,03,29,01,38,8.70
2017,03,29,01,39,8.70
2017,03,29,01,40,8.60
2017,03,29,01,41,8.60
2017,03,29,01,42,8.60
2017,03,29,01,43,8.60
2017,03,29,01,44,8.60
2017,03,29,01,45,8.60
2017,03,29,01,46,8.60
2017,03,29,01,47,8.60
2017,03,29,01,48,8.60
2017,03,29,01,49,8.60
2017,03,29,01,50,8.60
2017,03,29,01,51,8.60
2017,03,29,01,52,8.60
2017,03,29,01,53,8.60
2017,03,29,01,54,8.60
2017,03,29,01,55,8.60
2017,03,29,01,56,8.60
2017,03,29,01,57,8.60
2017,03,29,01,58,8.60
2017,03,29,01,59,8.60
2017,03,29,02,00,8.50
2017,03,29,02,01,8.60
2017,03,29,02,02,8.50
2017,03,29,02,03,8.60
2017,03,29,02,04,8.50
2017,03,29,02,05,8.50
2017,03,29,02,06,8.50
2017,03,29,02,07,8.50
2017,03,29,02,08,8.50
2017,03,29,02,09,8.50
2017,03,29,02,10,8.50
2017,03,29,02,11,8.50
2017,03,29,02,12,8.50
2017,03,29,02,13,8.50
2017,03,29,02,14,8.50
2017,03,29,02,15,8.40
2017,03,29,02,16,8.40
2017,03,29,02,17,8.40
2017,03,29,02,18,8.40
2017,03,29,02,19,8.40
2017,03,29,02,20,8.40
2017,03,29,02,21,8.40
2017,03,29,02,22,8.40
2017,03,29,02,23,8.40
2017,03,29,02,24,8.40
2017,03,29,02,25,8.40
2017,03,29,02,26,8.40
2017,03,29,02,27,8.40
2017,03,29,02,28,8.40
2017,03,29,02,29,8.40
2017,03,29,02,30,8.30
2017,03,29,02,31,8.30
2017,03,29,02,32,8.30
2017,03,29,02,33,8.30
2017,03,29,02,34,8.30
2017,03,29,02,35,8.30
2017,03,29,02,36,8.30
2017,03,29,02,37,8.30
2017,03,29,02,38,8.30
2017,03,29,02,39,8.30
2017,03,29,02,40,8.30
2017,03,29,02,41,8.30
2017,03,29,02,42,8.30
2017,03,29,02,43,8.30
2017,03,29,02,44,8.30
2017,03,29,02,45,8.30
2017,03,29,02,46,8.30
2017,03,29,02,47,8.30
2017,03,29,02,48,8.30
2017,03,29,02,49,8.30
2017,03,29,02,50,8.30
2017,03,29,02,51,8.30
2017,03,29,02,52,8.20
2017,03,29,02,53,8.20
2017,03,29,02,54,8.20
2017,03,29,02,55,8.20
2017,03,29,02,56,8.20
2017,03,29,02,57,8.20
2017,03,29,02,58,8.20
2017,03,29,02,59,8.20
2017,03,29,03,00,8.20
2017,03,29,03,01,8.20
2017,03,29,03,02,8.20
2017,03,29,03,03,8.10
2017,03,29,03,04,8.10
2017,03,29,03,05,8.10
2017,03,29,03,06,8.10
2017,03,29,03,07,8.10
2017,03,29,03,08,8.10
2017,03,29,03,09,8.10
2017,03,29,03,10,8.10
2017,03,29,03,11,8.10
2017,03,29,03,12,8.10
2017,03,29,03,13,8.00
2017,03,29,03,14,8.00
2017,03,29,03,15,8.00
2017,03,29,03,16,8.00
2017,03,29,03,17,8.00
2017,03,29,03,18,7.90
2017,03,29,03,19,7.90
2017,03,29,03,20,7.90
2017,03,29,03,21,7.90
2017,03,29,03,22,7.90
2017,03,29,03,23,7.90
2017,03,29,03,24,7.90
2017,03,29,03,25,7.90
2017,03,29,03,26,7.90
2017,03,29,03,27,7.90
2017,03,29,03,28,7.80
2017,03,29,03,29,7.80
2017,03,29,03,30,7.80
2017,03,29,03,31,7.80
2017,03,29,03,32,7.80
2017,03,29,03,33,7.80
2017,03,29,03,34,7.80
2017,03,29,03,35,7.80
2017,03,29,03,36,7.80
2017,03,29,03,37,7.80
2017,03,29,03,38,7.80
2017,03,29,03,39,7.80
2017,03,29,03,40,7.80
2017,03,29,03,41,7.80
2017,03,29,03,42,7.80
2017,03,29,03,43,7.80
2017,03,29,03,44,7.80
2017,03,29,03,45,7.80
2017,03,29,03,46,7.70
2017,03,29,03,47,7.70
2017,03,29,03,48,7.70
2017,03,29,03,49,7.70
2017,03,29,03,50,7.70
2017,03,29,03,51,7.70
2017,03,29,03,52,7.70
2017,03,29,03,53,7.70
2017,03,29,03,54,7.70
2017,03,29,03,55,7.70
2017,03,29,03,56,7.70
2017,03,29,03,57,7.70
2017,03,29,03,58,7.70
2017,03,29,03,59,7.70
2017,03,29,04,00,7.70
2017,03,29,04,01,7.70
2017,03,29,04,02,7.70
2017,03,29,04,03,7.70
2017,03,29,04,04,7.70
2017,03,29,04,05,7.70
2017,03,29,04,06,7.70
2017,03,29,04,07,7.70
2017,03,29,04,08,7.70
2017,03,29,04,09,7.70
2017,03,29,04,10,7.70
2017,03,29,04,11,7.70
2017,03,29,04,12,7.70
2017,03,29,04,13,7.70
2017,03,29,04,14,7.70
2017,03,29,04,15,7.70
2017,03,29,04,16,7.60
2017,03,29,04,17,7.60
2017,03,29,04,18,7.60
2017,03,29,04,19,7.60
2017,03,29,04,20,7.60
2017,03,29,04,21,7.60
2017,03,29,04,22,7.60
2017,03,29,04,23,7.60
2017,03,29,04,24,7.60
2017,03,29,04,25,7.60
2017,03,29,04,26,7.60
2017,03,29,04,27,7.60
2017,03,29,04,28,7.60
2017,03,29,04,29,7.60
2017,03,29,04,30,7.60
2017,03,29,04,31,7.60
2017,03,29,04,32,7.60
2017,03,29,04,33,7.60
2017,03,29,04,34,7.60
2017,03,29,04,35,7.60
2017,03,29,04,36,7.60
2017,03,29,04,37,7.60
2017,03,29,04,38,7.60
2017,03,29,04,39,7.60
2017,03,29,04,40,7.60
2017,03,29,04,41,7.60
2017,03,29,04,42,7.60
2017,03,29,04,43,7.60
2017,03,29,04,44,7.60
2017,03,29,04,45,7.60
2017,03,29,04,46,7.60
2017,03,29,04,47,7.60
2017,03,29,04,48,7.60
2017,03,29,04,49,7.60
2017,03,29,04,50,7.60
2017,03,29,04,51,7.60
2017,03,29,04,52,7.60
2017,03,29,04,53,7.60
2017,03,29,04,54,7.60
2017,03,29,04,55,7.60
2017,03,29,04,56,7.60
2017,03,29,04,57,7.60
2017,03,29,04,58,7.60
2017,03,29,04,59,7.60
2017,03,29,05,00,7.60
2017,03,29,05,01,7.60
2017,03,29,05,02,7.60
2017,03,29,05,03,7.60
2017,03,29,05,04,7.60
2017,03,29,05,05,7.60
2017,03,29,05,06,7.60
2017,03,29,05,07,7.60
2017,03,29,05,08,7.60
2017,03,29,05,09,7.60
2017,03,29,05,10,7.60
2017,03,29,05,11,7.60
2017,03,29,05,12,7.60
2017,03,29,05,13,7.60
2017,03,29,05,14,7.60
2017,03,29,05,15,7.60
2017,03,29,05,16,7.60
2017,03,29,05,17,7.60
2017,03,29,05,18,7.60
2017,03,29,05,19,7.60
2017,03,29,05,20,7.60
2017,03,29,05,21,7.60
2017,03,29,05,22,7.60
2017,03,29,05,23,7.60
2017,03,29,05,24,7.60
2017,03,29,05,25,7.60
2017,03,29,05,26,7.60
2017,03,29,05,27,7.60
2017,03,29,05,28,7.60
2017,03,29,05,29,7.60
2017,03,29,05,30,7.60
2017,03,29,05,31,7.60
2017,03,29,05,32,7.60
2017,03,29,05,33,7.60
2017,03,29,05,34,7.70
2017,03,29,05,35,7.70
2017,03,29,05,36,7.70
2017,03,29,05,37,7.70
2017,03,29,05,38,7.70
2017,03,29,05,39,7.70
2017,03,29,05,40,7.70
2017,03,29,05,41,7.70
2017,03,29,05,42,7.70
2017,03,29,05,43,7.70
2017,03,29,05,44,7.70
2017,03,29,05,45,7.70
2017,03,29,05,46,7.70
2017,03,29,05,47,7.70
2017,03,29,05,48,7.70
2017,03,29,05,49,7.70
2017,03,29,05,50,7.70
2017,03,29,05,51,7.70
2017,03,29,05,52,7.70
2017,03,29,05,53,7.70
2017,03,29,05,54,7.70
2017,03,29,05,55,7.70
2017,03,29,05,56,7.70
2017,03,29,05,57,7.70
2017,03,29,05,58,7.70
2017,03,29,05,59,7.70
2017,03,29,06,00,7.70
2017,03,29,06,01,7.70
2017,03,29,06,02,7.70
2017,03,29,06,03,7.70
2017,03,29,06,04,7.70
2017,03,29,06,05,7.70
2017,03,29,06,06,7.70
2017,03,29,06,07,7.70
2017,03,29,06,08,7.70
2017,03,29,06,09,7.70
2017,03,29,06,10,7.70
2017,03,29,06,11,7.70
2017,03,29,06,12,7.70
2017,03,29,06,13,7.70
2017,03,29,06,14,7.70
2017,03,29,06,15,7.70
2017,03,29,06,16,7.70
2017,03,29,06,17,7.70
2017,03,29,06,18,7.70
2017,03,29,06,19,7.70
2017,03,29,06,20,7.70
2017,03,29,06,21,7.70
2017,03,29,06,22,7.70
2017,03,29,06,23,7.70
2017,03,29,06,24,7.70
2017,03,29,06,25,7.70
2017,03,29,06,26,7.70
2017,03,29,06,27,7.70
2017,03,29,06,28,7.70
2017,03,29,06,29,7.70
2017,03,29,06,30,7.70
2017,03,29,06,31,7.70
2017,03,29,06,32,7.70
2017,03,29,06,33,7.70
2017,03,29,06,34,7.70
2017,03,29,06,35,7.70
2017,03,29,06,36,7.70
2017,03,29,06,37,7.70
2017,03,29,06,38,7.70
2017,03,29,06,39,7.70
2017,03,29,06,40,7.70
2017,03,29,06,41,7.70
2017,03,29,06,42,7.80
2017,03,29,06,43,7.80
2017,03,29,06,44,7.70
2017,03,29,06,45,7.70
2017,03,29,06,46,7.70
2017,03,29,06,47,7.70
2017,03,29,06,48,7.70
2017,03,29,06,49,7.70
2017,03,29,06,50,7.70
2017,03,29,06,51,7.70
2017,03,29,06,52,7.70
2017,03,29,06,53,7.70
2017,03,29,06,54,7.70
2017,03,29,06,55,7.70
2017,03,29,06,56,7.70
2017,03,29,06,57,7.70
2017,03,29,06,58,7.70
2017,03,29,06,59,7.70
2017,03,29,07,00,7.70
2017,03,29,07,01,7.70
2017,03,29,07,02,7.70
2017,03,29,07,03,7.70
2017,03,29,07,04,7.70
2017,03,29,07,05,7.70
2017,03,29,07,06,7.70
2017,03,29,07,07,7.70
2017,03,29,07,08,7.70
2017,03,29,07,09,7.70
2017,03,29,07,10,7.70
2017,03,29,07,11,7.70
2017,03,29,07,12,7.70
2017,03,29,07,13,7.70
2017,03,29,07,14,7.70
2017,03,29,07,15,7.70
2017,03,29,07,16,7.70
2017,03,29,07,17,7.70
2017,03,29,07,18,7.70
2017,03,29,07,19,7.70
2017,03,29,07,20,7.70
2017,03,29,07,21,7.70
2017,03,29,07,22,7.70
2017,03,29,07,23,7.70
2017,03,29,07,24,7.70
2017,03,29,07,25,7.70
2017,03,29,07,26,7.70
2017,03,29,07,27,7.70
2017,03,29,07,28,7.70
2017,03,29,07,29,7.70
2017,03,29,07,30,7.70
2017,03,29,07,31,7.70
2017,03,29,07,32,7.70
2017,03,29,07,33,7.70
2017,03,29,07,34,7.70
2017,03,29,07,35,7.70
2017,03,29,07,36,7.60
2017,03,29,07,37,7.70
2017,03,29,07,38,7.70
2017,03,29,07,39,7.70
2017,03,29,07,40,7.70
2017,03,29,07,41,7.70
2017,03,29,07,42,7.70
2017,03,29,07,43,7.70
2017,03,29,07,44,7.70
2017,03,29,07,45,7.70
2017,03,29,07,46,7.70
2017,03,29,07,47,7.70
2017,03,29,07,48,7.70
2017,03,29,07,49,7.70
2017,03,29,07,50,7.60
2017,03,29,07,51,7.60
2017,03,29,07,52,7.60
2017,03,29,07,53,7.60
2017,03,29,07,54,7.60
2017,03,29,07,55,7.60
2017,03,29,07,56,7.70
2017,03,29,07,57,7.70
2017,03,29,07,58,7.70
2017,03,29,07,59,7.70
2017,03,29,08,00,7.70
2017,03,29,08,01,7.70
2017,03,29,08,02,7.80
2017,03,29,08,03,7.80
2017,03,29,08,04,7.80
2017,03,29,08,05,7.80
2017,03,29,08,06,7.80
2017,03,29,08,07,7.90
2017,03,29,08,08,7.90
2017,03,29,08,09,7.90
2017,03,29,08,10,7.90
2017,03,29,08,11,7.90
2017,03,29,08,12,7.90
2017,03,29,08,13,7.90
2017,03,29,08,14,7.90
2017,03,29,08,15,7.90
2017,03,29,08,16,8.00
2017,03,29,08,17,8.00
2017,03,29,08,18,8.00
2017,03,29,08,19,8.00
2017,03,29,08,20,8.00
2017,03,29,08,21,8.10
2017,03,29,08,22,8.10
2017,03,29,08,23,8.10
2017,03,29,08,24,8.10
2017,03,29,08,25,8.10
2017,03,29,08,26,8.10
2017,03,29,08,27,8.10
2017,03,29,08,28,8.10
2017,03,29,08,29,8.10
2017,03,29,08,30,8.10
2017,03,29,08,31,8.10
2017,03,29,08,32,8.10
2017,03,29,08,33,8.10
2017,03,29,08,34,8.10
2017,03,29,08,35,8.10
2017,03,29,08,36,8.10
2017,03,29,08,37,8.10
2017,03,29,08,38,8.10
2017,03,29,08,39,8.10
2017,03,29,08,40,8.10
2017,03,29,08,41,8.10
2017,03,29,08,42,8.10
2017,03,29,08,43,8.10
2017,03,29,08,44,8.10
2017,03,29,08,45,8.10
2017,03,29,08,46,8.10
2017,03,29,08,47,8.10
2017,03,29,08,48,8.10
2017,03,29,08,49,8.10
2017,03,29,08,50,8.10
2017,03,29,08,51,8.10
2017,03,29,08,52,8.10
2017,03,29,08,53,8.10
2017,03,29,08,54,8.10
2017,03,29,08,55,8.10
2017,03,29,08,56,8.10
2017,03,29,08,57,8.10
2017,03,29,08,58,8.10
2017,03,29,08,59,8.20
2017,03,29,09,00,8.10
2017,03,29,09,01,8.20
2017,03,29,09,02,8.20
2017,03,29,09,03,8.20
2017,03,29,09,04,8.20
2017,03,29,09,05,8.20
2017,03,29,09,06,8.20
2017,03,29,09,07,8.20
2017,03,29,09,08,8.20
2017,03,29,09,09,8.20
2017,03,29,09,10,8.20
2017,03,29,09,11,8.20
2017,03,29,09,12,8.20
2017,03,29,09,13,8.20
2017,03,29,09,14,8.20
2017,03,29,09,15,8.20
2017,03,29,09,16,8.20
2017,03,29,09,17,8.20
2017,03,29,09,18,8.20
2017,03,29,09,19,8.20
2017,03,29,09,20,8.20
2017,03,29,09,21,8.20
2017,03,29,09,22,8.20
2017,03,29,09,23,8.20
2017,03,29,09,24,8.20
2017,03,29,09,25,8.20
2017,03,29,09,26,8.20
2017,03,29,09,27,8.20
2017,03,29,09,28,8.20
2017,03,29,09,29,8.20
2017,03,29,09,30,8.30
2017,03,29,09,31,8.30
2017,03,29,09,32,8.30
2017,03,29,09,33,8.30
2017,03,29,09,34,8.30
2017,03,29,09,35,8.30
2017,03,29,09,36,8.30
2017,03,29,09,37,8.30
2017,03,29,09,38,8.30
2017,03,29,09,39,8.30
2017,03,29,09,40,8.30
2017,03,29,09,41,8.30
2017,03,29,09,42,8.40
2017,03,29,09,43,8.40
2017,03,29,09,44,8.30
2017,03,29,09,45,8.40
2017,03,29,09,46,8.30
2017,03,29,09,47,8.30
2017,03,29,09,48,8.30
2017,03,29,09,49,8.30
2017,03,29,09,50,8.30
2017,03,29,09,51,8.30
2017,03,29,09,52,8.30
2017,03,29,09,53,8.30
2017,03,29,09,54,8.30
2017,03,29,09,55,8.40
2017,03,29,09,56,8.40
2017,03,29,09,57,8.40
2017,03,29,09,58,8.40
2017,03,29,09,59,8.40
2017,03,29,10,00,8.40
2017,03,29,10,01,8.40
2017,03,29,10,02,8.40
2017,03,29,10,03,8.40
2017,03,29,10,04,8.50
2017,03,29,10,05,8.40
2017,03,29,10,06,8.50
2017,03,29,10,07,8.50
2017,03,29,10,08,8.50
2017,03,29,10,09,8.60
2017,03,29,10,10,8.60
2017,03,29,10,11,8.60
2017,03,29,10,12,8.60
2017,03,29,10,13,8.60
2017,03,29,10,14,8.60
2017,03,29,10,15,8.60
2017,03,29,10,16,8.60
2017,03,29,10,17,8.60
2017,03,29,10,18,8.60
2017,03,29,10,19,8.60
2017,03,29,10,20,8.60
2017,03,29,10,21,8.60
2017,03,29,10,22,8.60
2017,03,29,10,23,8.60
2017,03,29,10,24,8.60
2017,03,29,10,25,8.70
2017,03,29,10,26,8.70
2017,03,29,10,27,8.70
2017,03,29,10,28,8.70
2017,03,29,10,29,8.70
2017,03,29,10,30,8.70
2017,03,29,10,31,8.70
2017,03,29,10,32,8.70
2017,03,29,10,33,8.70
2017,03,29,10,34,8.70
2017,03,29,10,35,8.70
2017,03,29,10,36,8.70
2017,03,29,10,37,8.70
2017,03,29,10,38,8.70
2017,03,29,10,39,8.70
2017,03,29,10,40,8.80
2017,03,29,10,41,8.80
2017,03,29,10,42,8.80
2017,03,29,10,43,8.80
2017,03,29,10,44,8.80
2017,03,29,10,45,8.80
2017,03,29,10,46,8.80
2017,03,29,10,47,8.80
2017,03,29,10,48,8.80
2017,03,29,10,49,8.80
2017,03,29,10,50,8.90
2017,03,29,10,51,8.90
2017,03,29,10,52,8.90
2017,03,29,10,53,8.90
2017,03,29,10,54,8.90
2017,03,29,10,55,8.90
2017,03,29,10,56,8.90
2017,03,29,10,57,8.90
2017,03,29,10,58,8.90
2017,03,29,10,59,8.90
2017,03,29,11,00,8.90
2017,03,29,11,01,8.90
2017,03,29,11,02,9.00
2017,03,29,11,03,9.00
2017,03,29,11,04,9.00
2017,03,29,11,05,9.00
2017,03,29,11,06,9.10
2017,03,29,11,07,9.10
2017,03,29,11,08,9.20
2017,03,29,11,09,9.20
2017,03,29,11,10,9.20
2017,03,29,11,11,9.20
2017,03,29,11,12,9.20
2017,03,29,11,13,9.20
2017,03,29,11,14,9.30
2017,03,29,11,15,9.20
2017,03,29,11,16,9.20
2017,03,29,11,17,9.30
2017,03,29,11,18,9.30
2017,03,29,11,19,9.30
2017,03,29,11,20,9.30
2017,03,29,11,21,9.30
2017,03,29,11,22,9.30
2017,03,29,11,23,9.30
2017,03,29,11,24,9.40
2017,03,29,11,25,9.40
2017,03,29,11,26,9.40
2017,03,29,11,27,9.50
2017,03,29,11,28,9.50
2017,03,29,11,29,9.60
2017,03,29,11,30,9.60
2017,03,29,11,31,9.60
2017,03,29,11,32,9.60
2017,03,29,11,33,9.60
2017,03,29,11,34,9.60
2017,03,29,11,35,9.60
2017,03,29,11,36,9.60
2017,03,29,11,37,9.60
2017,03,29,11,38,9.60
2017,03,29,11,39,9.60
2017,03,29,11,40,9.60
2017,03,29,11,41,9.70
2017,03,29,11,42,9.70
2017,03,29,11,43,9.70
2017,03,29,11,44,9.70
2017,03,29,11,45,9.70
2017,03,29,11,46,9.70
2017,03,29,11,47,9.70
2017,03,29,11,48,9.70
2017,03,29,11,49,9.70
2017,03,29,11,50,9.70
2017,03,29,11,51,9.70
2017,03,29,11,52,9.70
2017,03,29,11,53,9.70
2017,03,29,11,54,9.70
2017,03,29,11,55,9.70
2017,03,29,11,56,9.80
2017,03,29,11,57,9.80
2017,03,29,11,58,9.80
2017,03,29,11,59,9.90
2017,03,29,12,00,9.90
2017,03,29,12,01,9.90
2017,03,29,12,02,9.90
2017,03,29,12,03,10.00
2017,03,29,12,04,10.00
2017,03,29,12,05,10.00
2017,03,29,12,06,9.90
2017,03,29,12,07,9.90
2017,03,29,12,08,9.90
2017,03,29,12,09,9.90
2017,03,29,12,10,9.90
2017,03,29,12,11,10.00
2017,03,29,12,12,10.10
2017,03,29,12,13,10.10
2017,03,29,12,14,10.10
2017,03,29,12,15,10.10
2017,03,29,12,16,10.10
2017,03,29,12,17,10.10
2017,03,29,12,18,10.10
2017,03,29,12,19,10.10
2017,03,29,12,20,10.10
2017,03,29,12,21,10.10
2017,03,29,12,22,10.20
2017,03,29,12,23,10.10
2017,03,29,12,24,10.20
2017,03,29,12,25,10.20
2017,03,29,12,26,10.20
2017,03,29,12,27,10.20
2017,03,29,12,28,10.20
2017,03,29,12,29,10.20
2017,03,29,12,30,10.30
2017,03,29,12,31,10.30
2017,03,29,12,32,10.30
2017,03,29,12,33,10.40
2017,03,29,12,34,10.40
2017,03,29,12,35,10.40
2017,03,29,12,36,10.50
2017,03,29,12,37,10.50
2017,03,29,12,38,10.60
2017,03,29,12,39,10.60
2017,03,29,12,40,10.60
2017,03,29,12,41,10.70
2017,03,29,12,42,10.70
2017,03,29,12,43,10.80
2017,03,29,12,44,10.90
2017,03,29,12,45,10.90
2017,03,29,12,46,11.00
2017,03,29,12,47,11.00
2017,03,29,12,48,11.10
2017,03,29,12,49,11.10
2017,03,29,12,50,11.10
2017,03,29,12,51,11.10
2017,03,29,12,52,11.10
2017,03,29,12,53,11.20
2017,03,29,12,54,11.20
2017,03,29,12,55,11.30
2017,03,29,12,56,11.30
2017,03,29,12,57,11.40
2017,03,29,12,58,11.40
2017,03,29,12,59,11.50
2017,03,29,13,00,11.60
2017,03,29,13,01,11.70
2017,03,29,13,02,11.80
2017,03,29,13,03,11.90
2017,03,29,13,04,12.00
2017,03,29,13,05,12.00
2017,03,29,13,06,12.10
2017,03,29,13,07,12.20
2017,03,29,13,08,12.30
2017,03,29,13,09,12.30
2017,03,29,13,10,12.30
2017,03,29,13,11,12.40
2017,03,29,13,12,12.40
2017,03,29,13,13,12.50
2017,03,29,13,14,12.50
2017,03,29,13,15,12.60
2017,03,29,13,16,12.60
2017,03,29,13,17,12.70
2017,03,29,13,18,12.80
2017,03,29,13,19,12.80
2017,03,29,13,20,12.90
2017,03,29,13,21,13.00
2017,03,29,13,22,13.00
2017,03,29,13,23,13.10
2017,03,29,13,24,13.10
2017,03,29,13,25,13.10
2017,03,29,13,26,13.20
2017,03,29,13,27,13.20
2017,03,29,13,28,13.20
2017,03,29,13,29,13.30
2017,03,29,13,30,13.30
2017,03,29,13,31,13.30
2017,03,29,13,32,13.40
2017,03,29,13,33,13.40
2017,03,29,13,34,13.40
2017,03,29,13,35,13.40
2017,03,29,13,36,13.40
2017,03,29,13,37,13.40
2017,03,29,13,38,13.50
2017,03,29,13,39,13.50
2017,03,29,13,40,13.60
2017,03,29,13,41,13.70
2017,03,29,13,42,13.70
2017,03,29,13,43,13.80
2017,03,29,13,44,13.80
2017,03,29,13,45,13.80
2017,03,29,13,46,13.80
2017,03,29,13,47,13.80
2017,03,29,13,48,13.90
2017,03,29,13,49,14.00
2017,03,29,13,50,14.10
2017,03,29,13,51,14.10
2017,03,29,13,52,14.10
2017,03,29,13,53,14.20
2017,03,29,13,54,14.20
2017,03,29,13,55,14.20
2017,03,29,13,56,14.20
2017,03,29,13,57,14.20
2017,03,29,13,58,14.10
2017,03,29,13,59,14.10
2017,03,29,14,00,14.00
2017,03,29,14,01,13.90
2017,03,29,14,02,13.90
2017,03,29,14,03,13.90
2017,03,29,14,04,13.80
2017,03,29,14,05,13.80
2017,03,29,14,06,13.70
2017,03,29,14,07,13.60
2017,03,29,14,08,13.60
2017,03,29,14,09,13.60
2017,03,29,14,10,13.50
2017,03,29,14,11,13.50
2017,03,29,14,12,13.40
2017,03,29,14,13,13.40
2017,03,29,14,14,13.40
2017,03,29,14,15,13.40
2017,03,29,14,16,13.30
2017,03,29,14,17,13.30
2017,03,29,14,18,13.30
2017,03,29,14,19,13.30
2017,03,29,14,20,13.30
2017,03,29,14,21,13.30
2017,03,29,14,22,13.40
2017,03,29,14,23,13.40
2017,03,29,14,24,13.40
2017,03,29,14,25,13.40
2017,03,29,14,26,13.40
2017,03,29,14,27,13.40
2017,03,29,14,28,13.30
2017,03,29,14,29,13.30
2017,03,29,14,30,13.30
2017,03,29,14,31,13.30
2017,03,29,14,32,13.40
2017,03,29,14,33,13.40
2017,03,29,14,34,13.40
2017,03,29,14,35,13.40
2017,03,29,14,36,13.50
2017,03,29,14,37,13.50
2017,03,29,14,38,13.60
2017,03,29,14,39,13.70
2017,03,29,14,40,13.70
2017,03,29,14,41,13.70
2017,03,29,14,42,13.60
2017,03,29,14,43,13.50
2017,03,29,14,44,13.40
2017,03,29,14,45,13.40
2017,03,29,14,46,13.40
2017,03,29,14,47,13.40
2017,03,29,14,48,13.40
2017,03,29,14,49,13.30
2017,03,29,14,50,13.30
2017,03,29,14,51,13.30
2017,03,29,14,52,13.30
2017,03,29,14,53,13.30
2017,03,29,14,54,13.20
2017,03,29,14,55,13.20
2017,03,29,14,56,13.20
2017,03,29,14,57,13.20
2017,03,29,14,58,13.20
2017,03,29,14,59,13.20
2017,03,29,15,00,13.30
2017,03,29,15,01,13.20
2017,03,29,15,02,13.20
2017,03,29,15,03,13.30
2017,03,29,15,04,13.30
2017,03,29,15,05,13.30
2017,03,29,15,06,13.30
2017,03,29,15,07,13.30
2017,03,29,15,08,13.20
2017,03,29,15,09,13.20
2017,03,29,15,10,13.30
2017,03,29,15,11,13.30
2017,03,29,15,12,13.40
2017,03,29,15,13,13.50
2017,03,29,15,14,13.50
2017,03,29,15,15,13.50
2017,03,29,15,16,13.50
2017,03,29,15,17,13.50
2017,03,29,15,18,13.50
2017,03,29,15,19,13.50
2017,03,29,15,20,13.50
2017,03,29,15,21,13.50
2017,03,29,15,22,13.50
2017,03,29,15,23,13.50
2017,03,29,15,24,13.50
2017,03,29,15,25,13.50
2017,03,29,22,30,8.30
2017,03,29,22,31,8.30
2017,03,29,22,32,8.30
2017,03,29,22,33,8.30
2017,03,29,22,34,8.30
2017,03,29,22,35,8.30
2017,03,29,22,36,8.30
2017,03,29,22,37,8.30
2017,03,29,22,38,8.30
2017,03,29,22,39,8.30
2017,03,29,22,40,8.30
2017,03,29,22,41,8.30
2017,03,29,22,42,8.30
2017,03,29,22,43,8.30
2017,03,29,22,44,8.40
2017,03,29,22,45,8.40
2017,03,29,22,46,8.40
2017,03,29,22,47,8.40
2017,03,29,22,48,8.40
2017,03,29,22,49,8.40
2017,03,29,22,50,8.40
2017,03,29,22,51,8.40
2017,03,29,22,52,8.50
2017,03,29,22,53,8.50
2017,03,29,22,54,8.50
2017,03,29,22,55,8.50
2017,03,29,22,56,8.50
2017,03,29,22,57,8.50
2017,03,29,22,58,8.50
2017,03,29,22,59,8.60
2017,03,29,23,00,8.60
2017,03,29,23,01,8.60
2017,03,29,23,02,8.60
2017,03,29,23,03,8.60
2017,03,29,23,04,8.50
2017,03,29,23,05,8.50
2017,03,29,23,06,8.50
2017,03,29,23,07,8.50
2017,03,29,23,08,8.40
2017,03,29,23,09,8.40
2017,03,29,23,10,8.40
2017,03,29,23,11,8.40
2017,03,29,23,12,8.40
2017,03,29,23,13,8.40
2017,03,29,23,14,8.40
2017,03,29,23,15,8.40
2017,03,29,23,16,8.40
2017,03,29,23,17,8.40
2017,03,29,23,18,8.40
2017,03,29,23,19,8.40
2017,03,29,23,20,8.40
2017,03,29,23,21,8.40
2017,03,29,23,22,8.40
2017,03,29,23,23,8.40
2017,03,29,23,24,8.30
2017,03,29,23,25,8.30
2017,03,29,23,26,8.30
2017,03,29,23,27,8.30
2017,03,29,23,28,8.30
2017,03,29,23,29,8.30
2017,03,29,23,30,8.30
2017,03,29,23,31,8.20
2017,03,29,23,32,8.20
2017,03,29,23,33,8.20
2017,03,29,23,34,8.20
2017,03,29,23,35,8.20
2017,03,29,23,36,8.20
2017,03,29,23,37,8.10
2017,03,29,23,38,8.10
2017,03,29,23,39,8.10
2017,03,29,23,40,8.10
2017,03,29,23,41,8.10
2017,03,29,23,42,8.10
2017,03,29,23,43,8.00
2017,03,29,23,44,8.00
2017,03,29,23,45,8.00
2017,03,29,23,46,8.00
2017,03,29,23,47,7.90
2017,03,29,23,48,7.90
2017,03,29,23,49,7.90
2017,03,29,23,50,7.90
2017,03,29,23,51,7.90
2017,03,29,23,52,7.80
2017,03,29,23,53,7.80
2017,03,29,23,54,7.80
2017,03,29,23,55,7.80
2017,03,29,23,56,7.80
2017,03,29,23,57,7.80
2017,03,29,23,58,7.70
2017,03,29,23,59,7.70
